• Join FlightAware (Why Join?)
  • Login
  • US Flag GB Flag 
23:19 EDT


 

Airport Tracker/Info


-or-


 

Live Flight TrackerFlight Track Log ✈ UPS1337 ✈ 27-Feb-2014 ✈ KPIE - KSDF

Flight Track Log - Related Links

Times and Time Zones

All times are in EST time to prevent confusion due to time zone crossing. See the UPS1337 flight status page for this flight to view local times or setup timezone preferences in your user account.

Time Position Orientation Groundspeed Altitude Reporting Facility
EST Latitude Longitude Course Direction KTS MPH feet Rate Location/Type
21:49 27.9333 -82.7000 360° North 167 192 900  Level Tampa TRACON
21:49 27.9500 -82.7000 345° North 208 239 2,300 2,820 Climbing Tampa TRACON
21:50 28.0500 -82.7000 360° North 274 315 6,000 2,760 Climbing Tampa TRACON
21:53 28.2292 -82.7017 360° North 302 348 12,200 2,520 Climbing Jacksonville Center
21:54 28.3356 -82.7017 360° North 344 396 14,600 2,820 Climbing Jacksonville Center
21:55 28.4481 -82.6967 North 381 438 17,900 2,220 Climbing Jacksonville Center
22:00 29.1227 -82.6542 North 490 564 28,400 1,920 Climbing FlightAware ADS-B (KMCO)
22:01 29.2076 -82.6497 North 500 575 29,100 1,080 Climbing FlightAware ADS-B (KMCO)
22:03 29.5893 -82.6269 North 489 563 32,200 960 Climbing FlightAware ADS-B (KMCO)
22:04 29.6642 -82.6224 North 488 562 32,500 540 Climbing FlightAware ADS-B (KMCO)
22:04 29.7268 -82.6188 North 487 560 32,800 480 Climbing FlightAware ADS-B (KMCO)
22:05 29.8017 -82.6142 North 489 563 33,000 120 Climbing FlightAware ADS-B (KMCO)
22:06 29.9389 -82.6059 North 488 562 33,000  Level FlightAware ADS-B (KMCO)
22:07 30.0329 -82.6002 North 485 558 33,000  Level FlightAware ADS-B (KMCO)
22:07 30.0992 -82.5962 North 485 558 33,000  Level FlightAware ADS-B (KMCO)
22:08 30.1680 -82.5921 North 486 559 33,000  Level FlightAware ADS-B (KMCO)
22:08 30.2542 -82.5869 North 488 562 33,000  Level FlightAware ADS-B (KMCO)
22:10 30.5326 -82.5698 North 492 566 33,000  Level FlightAware ADS-B (KMCO)
22:12 30.7086 -82.5614 North 483 556 33,000  Level Jacksonville Center
22:13 30.8444 -82.5539 North 483 556 33,000  Level Jacksonville Center
22:14 30.9800 -82.5436 North 483 556 33,000  Level Jacksonville Center
22:15 31.1158 -82.5333 North 483 556 33,000  Level Jacksonville Center
22:16 31.2514 -82.5281 North 483 556 33,000  Level Jacksonville Center
22:17 31.4722 -82.5147 North 494 568 33,000  Level Atlanta Center
22:18 31.6017 -82.5344 353° North 488 562 33,000  Level Atlanta Center
22:19 31.7253 -82.5739 345° North 469 540 33,000  Level Atlanta Center
22:20 31.8469 -82.6136 345° North 455 524 33,000  Level Atlanta Center
22:21 31.9683 -82.6531 345° North 455 524 33,000  Level Atlanta Center
22:22 32.0900 -82.6931 344° North 455 524 33,000  Level Atlanta Center
22:23 32.2114 -82.7328 345° North 455 524 33,000 360 Level Atlanta Center
22:24 32.3328 -82.7753 344° North 455 524 33,800 480 Climbing Atlanta Center
22:25 32.4522 -82.8253 341° North 455 524 34,000 60 Climbing Atlanta Center
22:26 32.5803 -82.8728 343° North 455 524 34,000  Level Atlanta Center
22:27 32.7017 -82.9206 342° North 444 511 34,000  Level Atlanta Center
22:28 32.8211 -82.9661 342° North 452 520 34,000  Level Atlanta Center
22:29 32.9383 -83.0117 342° North 447 514 34,000  Level Atlanta Center
22:30 33.0578 -83.0597 341° North 447 514 34,000  Level Atlanta Center
22:31 33.1769 -83.1056 342° North 448 516 34,000  Level Atlanta Center
22:32 33.2922 -83.1517 342° North 442 509 34,000  Level Atlanta Center
22:33 33.4114 -83.1978 342° North 442 509 34,000  Level Atlanta Center
22:34 33.5267 -83.2439 342° North 442 509 34,000  Level Atlanta Center
22:40 34.1994 -83.5062 341° North 427 491 34,000  Level FlightAware ADS-B (KDZJ)
22:41 34.2768 -83.5372 342° North 439 505 34,000  Level FlightAware ADS-B (KDZJ)
22:41 34.3465 -83.5652 342° North 440 506 34,000  Level FlightAware ADS-B (KDZJ)
22:42 34.4305 -83.5990 342° North 438 504 34,000  Level FlightAware ADS-B (KDZJ)
22:43 34.5048 -83.6290 341° North 427 491 34,000  Level FlightAware ADS-B (KDZJ)
22:43 34.5801 -83.6592 341° North 425 489 34,000  Level FlightAware ADS-B (KDZJ)
22:44 34.6591 -83.6910 341° North 422 486 34,000  Level FlightAware ADS-B (KDZJ)
22:45 34.7306 -83.7200 341° North 426 490 34,000  Level FlightAware ADS-B (KDZJ)
22:45 34.8063 -83.7511 342° North 423 487 34,000  Level FlightAware ADS-B (KDZJ)
22:46 34.8819 -83.7816 342° North 426 490 34,000  Level FlightAware ADS-B (KDZJ)
22:47 34.9589 -83.8130 341° North 423 487 34,000  Level FlightAware ADS-B (KDZJ)
22:47 35.0354 -83.8444 341° North 426 490 34,000  Level FlightAware ADS-B (KDZJ)
22:48 35.1119 -83.8756 341° North 427 491 34,000  Level FlightAware ADS-B (KDZJ)
22:49 35.1876 -83.9066 341° North 426 490 34,000  Level FlightAware ADS-B (KDZJ)
22:49 35.2622 -83.9372 341° North 425 489 34,000  Level FlightAware ADS-B (KDZJ)
22:50 35.3341 -83.9667 341° North 424 488 34,000  Level FlightAware ADS-B (KDZJ)
22:51 35.4653 -84.0203 341° North 392 451 34,000  Level Indianapolis Center
22:52 35.5981 -84.0758 341° North 423 487 34,000  Level Indianapolis Center
22:53 35.6911 -84.1181 340° North 428 493 34,000  Level Atlanta Center
22:54 35.8036 -84.1642 342° North 428 493 34,000  Level Atlanta Center
22:55 35.9164 -84.2081 343° North 428 493 34,000 -540 Level Atlanta Center
22:58 36.1658 -84.3125 341° North 428 493 32,400 -840 Descending Indianapolis Center
22:59 36.2700 -84.3558 341° North 424 488 31,400 -1,020 Descending Indianapolis Center
23:00 36.3803 -84.4036 341° North 423 487 30,400 -840 Descending Indianapolis Center
23:01 36.4917 -84.4506 341° North 423 487 29,700 -960 Descending Indianapolis Center
23:02 36.6061 -84.4994 341° North 410 472 28,500 -1,140 Descending Indianapolis Center
23:08 37.2041 -84.7562 341° North 353 406 21,600 -1,080 Descending FlightAware ADS-B (KBRY)
23:09 37.2975 -84.7971 341° North 349 402 21,000 -780 Descending FlightAware ADS-B (KBRY)
23:10 37.3828 -84.8339 340° North 322 371 20,100 -1,320 Descending FlightAware ADS-B (KBRY)
23:11 37.4776 -84.8758 341° North 315 362 18,300 -1,980 Descending FlightAware ADS-B (KBRY)
23:12 37.5534 -84.9087 341° North 310 357 16,100 -2,220 Descending FlightAware ADS-B (KCVG)
23:13 37.6230 -84.9389 341° North 292 336 14,000 -2,100 Descending FlightAware ADS-B (KBRY)
23:14 37.7040 -85.0208 311° West 256 295 11,300 -1,860 Descending FlightAware ADS-B (KBRY)
23:15 37.7500 -85.0848 312° West 245 282 9,900 -1,200 Descending FlightAware ADS-B (KBRY)
23:16 37.7872 -85.1519 294° West 237 273 9,000 -900 Descending FlightAware ADS-B (KBRY)
23:17 37.8159 -85.2370 292° West 239 275 8,000 -600 Descending FlightAware ADS-B (KBRY)
23:18 37.8434 -85.3163 294° West 239 275 7,800 -120 Descending FlightAware ADS-B (KBRY)
23:19 37.8695 -85.3930 293° West 238 274 7,800  Level FlightAware ADS-B (KBRY)
23:20 37.8797 -85.4235 293° West 238 274 7,800 -720 Level FlightAware ADS-B
23:20 37.8956 -85.4697 294° West 236 272 7,100 -1,440 Descending FlightAware ADS-B (KBRY)
23:21 37.9210 -85.5466 292° West 239 275 5,500 -1,680 Descending FlightAware ADS-B (KBRY)
23:21 37.9269 -85.5668 285° West 239 275 5,000 -900 Descending FlightAware ADS-B
23:22 37.9186 -85.6076 245° Southwest 223 257 4,800 -480 Descending FlightAware ADS-B
23:22 37.9120 -85.6310 255° West 206 237 4,600 -720 Descending FlightAware ADS-B
23:22 37.9120 -85.6363 273° West 205 236 4,500 -780 Descending FlightAware ADS-B (KBRY)
23:22 37.9128 -85.6418 296° West 208 239 4,500 -1,200 Level FlightAware ADS-B
23:23 37.9203 -85.6572 318° Northwest 213 245 4,000 -1,080 Descending FlightAware ADS-B
23:23 37.9370 -85.6690 340° North 215 247 3,900 -300 Descending FlightAware ADS-B
23:24 37.9694 -85.6790 349° North 212 244 3,800 -660 Descending FlightAware ADS-B (KBRY)
23:25 38.0335 -85.6976 344° North 184 212 2,800 -900 Descending FlightAware ADS-B (KBRY)
23:26 38.0736 -85.7125 346° North 128 147 1,900 -780 Descending FlightAware ADS-B (KBRY)
23:27 38.1090 -85.7230 346° North 125 144 1,300 -660 Descending FlightAware ADS-B (KBRY)
23:27 38.1139 -85.7246 345° North 125 144 1,000 -720 Descending FlightAware ADS-B (KBRY)
23:35 38.1667 -85.7333 208° Southwest  Level FlightAware Approximate
23:36 38.1741 -85.7365 208° Southwest  Level Estimated